Regional Weather Roundup
Issued by NWS

Home | Current Version | Previous Version | Graphics & Text | Print | Product List | Glossary Off
Versions: 1 2 3 4 5 6 7 8 9 10 11 12 13 14 15 16 17 18 19 20 21 22 23 24 25 26 27 28 29 30 31 32 33 34 35 36 37 38 39 40 41 42 43 44 45 46 47 48 49 50

000
ASUS43 KMKX 252311
RWRWI

WISCONSIN REGIONAL WEATHER ROUNDUP
NATIONAL WEATHER SERVICE MILWAUKEE/SULLIVAN WI
500 PM CST SUN JAN 25 2015

NOTE: "FAIR" INDICATES FEW OR NO CLOUDS BELOW 12,000 FEET WITH NO
SIGNIFICANT WEATHER AND/OR OBSTRUCTIONS TO VISIBILITY.

WIZ001-002-006>008-014>016-023>028-260000-
NORTHWEST WISCONSIN

CITY           SKY/WX    TMP DP  RH WIND       PRES   REMARKS
SUPERIOR ARPT  PTCLDY    21  13  71 N3        30.05S
ASHLAND        PTCLDY    17   8  67 N6        30.05R WCI   9
HAYWARD        PTCLDY    21   6  52 CALM      30.00F
SIREN          MOCLDY    25  11  55 CALM      30.03S
CUMBERLAND     CLOUDY    21   9  58 CALM      30.01R
RICE LAKE      CLOUDY    22  10  60 CALM      30.03S
CHETEK         CLOUDY    22  10  61 CALM      30.02F
LADYSMITH      CLOUDY    22   9  57 SE3       30.02F
EAU CLAIRE     CLOUDY    23  10  57 E3        30.03F
MENOMONIE      MOCLDY    24  11  57 E6        30.03F WCI  17
NEW RICHMOND   CLEAR     22  10  60 CALM      30.04R
OSCEOLA        PTCLDY    24  13  64 S6        30.06S WCI  17
$$

WIZ003>005-009-010-017-018-260000-
NORTH CENTRAL WISCONSIN

CITY           SKY/WX    TMP DP  RH WIND       PRES   REMARKS
MANITOWISH WTR CLOUDY    17   5  59 CALM      29.97F
ARBOR VITAE    CLOUDY    19   7  58 CALM      29.98S
WOODRUFF       CLOUDY    19   7  58 CALM      29.98S
RHINELANDER    CLOUDY    18   5  57 CALM      29.98F
EAGLE RIVER    CLOUDY    17   3  53 CALM      29.97F
LAND O LAKES   CLOUDY    18   6  58 CALM      29.98F
PHILLIPS       CLOUDY    19   6  57 CALM      29.98F
TOMAHAWK       CLOUDY    18   5  57 CALM      29.99F
MEDFORD        CLOUDY    19   8  63 S5        29.99F WCI  12
MERRILL        CLOUDY    20   6  53 CALM      29.99F
$$

WIZ029-030-035-036-043>047-260000-
CENTRAL WISCONSIN

CITY           SKY/WX    TMP DP  RH WIND       PRES   REMARKS
WAUSAU         MOCLDY    19   4  51 E3        30.00S
MOSINEE        PTCLDY    19   7  58 N6        30.02R WCI  11
MARSHFIELD     CLOUDY    21   9  59 NE7       30.01R WCI  12
STEVENS POINT  PTCLDY    16   4  58 CALM      30.03S
WAUPACA        CLEAR     21   8  56 N5        30.05S WCI  15
WAUTOMA        CLEAR     20   9  62 NE6       30.05R WCI  12
WISC RAPIDS    CLOUDY    19   6  57 E5        30.05R WCI  12
CAMP DOUGLAS   CLOUDY    22  10  60 NE6       30.03R WCI  15
$$

WIZ011>013-019>022-031-037>040-048>050-260000-
NORTHEAST WISCONSIN

CITY           SKY/WX    TMP DP  RH WIND       PRES   REMARKS
ANTIGO         CLOUDY    17   6  64 CALM      29.99F
SHAWANO        PTCLDY    20   8  60 E3        30.06S
OCONTO         CLEAR     16   7  67 E6        30.07S WCI   8
STURGEON BAY   CLEAR     16   3  57 NE7       30.07S WCI   6
GREEN BAY      CLEAR     17   9  70 NE13      30.06R WCI   4
MANITOWOC      PTCLDY    20  12  71 N9        30.05R WCI   9
APPLETON       PTCLDY    19   7  58 NE10      30.05R WCI   8
CLINTONVILLE   PTCLDY    19   7  58 E6        30.05S WCI  11
OSHKOSH        CLEAR     19  10  68 N13       30.04R WCI   6
$$

WIZ032>034-041-042-053>061-260000-
SOUTHWEST WISCONSIN

CITY           SKY/WX    TMP DP  RH WIND       PRES   REMARKS
LA CROSSE      CLOUDY    28  14  55 N5        30.04R WCI  23
SPARTA         PTCLDY    24  11  59 E3        30.05R
VIROQUA        MOCLDY    24  14  65 NE7       30.00R WCI  16
BOSCOBEL       CLEAR     26  13  57 NE3       30.03R
PRAIRIE DU CHI CLEAR     28  14  57 N6        30.03R WCI  21
PLATTEVILLE    CLEAR     22  15  76 N8        29.98S WCI  12
$$

WIZ056-057-062-063-064-067-068-260000-
SOUTH CENTRAL WISCONSIN

CITY           SKY/WX    TMP DP  RH WIND       PRES   REMARKS
REEDSBURG      CLEAR     22  10  61 NE8       30.01S WCI  12
BARABOO/DELLS  CLEAR     21  10  62 NE6       30.01S WCI  13
LONE ROCK      CLEAR     22  11  62 NE7       30.03R WCI  13
MINERAL POINT  CLEAR     23  14  68 NE9       29.97S WCI  13
MADISON        PTCLDY    21  11  65 NE15      30.00R WCI   8
MIDDLETON      CLEAR     24  14  66 NE12G17   30.00S WCI  12
WATERTOWN      CLEAR     21   9  58 NE8       29.99R WCI  12
MONROE         CLEAR     23  18  80 N16G23    29.95S WCI  10
JANESVILLE     CLEAR     27  10  50 NE14G21   29.97R WCI  15
$$

WIZ051-052-058>065-066-070>072-260000-
SOUTHEAST WISCONSIN

CITY           SKY/WX    TMP DP  RH WIND       PRES   REMARKS
MILWAUKEE      MOCLDY    25  13  60 N15G25    29.98R WCI  13
WAUKESHA       CLEAR     19  10  68 NE16G25   29.99R WCI   5
MILWAUKEE/TIMM CLEAR     23  14  68 N9        30.00R WCI  13
RACINE         PTCLDY    24  14  65 N15G24    29.99R WCI  11
BURLINGTON     CLEAR     21  12  68 NE16      29.97R WCI   7
KENOSHA        CLEAR     24  14  65 NE15      29.96R WCI  11
FOND DU LAC    PTCLDY    19  11  70 N15       30.03R WCI   5
SHEBOYGAN      MOCLDY    21  12  68 N16G23    30.02R WCI   7
WEST BEND      CLEAR     21  10  63 N13G18    30.00R WCI   9
JUNEAU         CLEAR     19  12  74 N10       30.01S WCI   8
$$

LSZ147-162-260000-
LAKE SUPERIOR

STATION/POSITION TIME  TEMP    WIND        PRES    WAVE
                       AIR SEA DIR/SP/G            HT/PER
                 (UTC) (F)     (DEG/KT/KT) (MB)    (FT/S)
DEVILS ISLAND    2300   20     180/  3/  4 1019.4S
PORT WING        2200   22      50/  1/  3 1017.9F
SAXON HARBOR     2240   21      CALM  /  2 1017.3F
$$

LMZ867-665-643>646-260000-
LAKE MICHIGAN

STATION/POSITION TIME  TEMP    WIND        PRES    WAVE
                       AIR SEA DIR/SP/G            HT/PER
                 (UTC) (F)     (DEG/KT/KT) (MB)    (FT/S)
NORTHPORT PIER   2209   18      10/  5/ 10 1018.3S
SISTER BAY       2213   23      30/  5/  9   N/A
KEWAUNEE LAKESHO 2200   21      40/ 19/ 22 1016.5R
SHEBOYGAN LAKESH 2300   23      20/ 25/ 28 1017.8R
PORT WASHINGTON  2200   25      40/ 17/ 21 1016.6
MILWAUKEE LAKESH 2200   25      20/ 20/ 23   N/A
KENOSHA   LAKESH 2300   26      30/ 23/ 26 1014.6R
$$

TC  - TEMPERATURE IN CELSIUS
VSB - VISIBILITY IN STATUTE MILES
WCI - WIND CHILL INDEX
HX  - HEAT INDEX



USA.gov is the U.S. government's official web portal to all federal, state and local government web resources and services.